Flight Track Log - Related Links

Times and Time Zones

All times are in EDT time to prevent confusion due to time zone crossing. See the ACA661 flight status page for this flight to view local times or setup timezone preferences in your user account.

Time Position Orientation Groundspeed Altitude Reporting Facility
EDT Latitude Longitude Course Direction KTS MPH feet Rate Location/Type
05:45AM 44.8667 -63.5000 305° West 80 92 500  Level Moncton Center
05:46AM 44.8500 -63.4333 109° East 150 173 2,900 2,350 Climbing Moncton Center
05:47AM 44.8167 -63.3833 133° Southeast 190 219 5,200 2,350 Climbing Moncton Center
05:48AM 44.7833 -63.4500 235° Southwest 240 276 7,600 2,850 Climbing Moncton Center
05:49AM 45.0270 -64.0669 294° West  Level FlightAware Approximate
05:49AM 44.8000 -63.5500 283° West 300 345 10,900  Level Moncton Center
05:50AM 45.0702 -64.2073 294° West  Level FlightAware Approximate
05:50AM 44.8500 -63.6667 301° West 330 380 13,600  Level Moncton Center
05:51AM 45.1014 -64.3528 305° West  Level FlightAware Approximate
05:51AM 44.9167 -63.7667 313° West 330 380 16,300  Level Moncton Center
05:52AM 44.9500 -63.8833 292° West 330 380 18,900 2,300 Climbing Moncton Center
05:53AM 44.9833 -64.0000 292° West 340 391 20,900 1,600 Climbing Moncton Center
05:54AM 45.0333 -64.1333 298° West 360 414 22,100 1,550 Climbing Moncton Center
05:55AM 45.0667 -64.2833 288° West 380 437 24,000 1,700 Climbing Moncton Center
05:56AM 45.1000 -64.4000 292° West 390 449 25,500 1,450 Climbing Moncton Center
05:57AM 45.1333 -64.5667 286° West 390 449 26,900 1,300 Climbing Moncton Center
05:58AM 45.1500 -64.7000 280° West 400 460 28,100 1,400 Climbing Moncton Center
05:59AM 45.1667 -64.8667 278° West 400 460 29,700 1,500 Climbing Moncton Center
06:00AM 45.1833 -65.0167 279° West 400 460 31,100 1,600 Climbing Moncton Center
06:01AM 45.2000 -65.1833 278° West 390 449 32,900 1,600 Climbing Moncton Center
06:02AM 45.2333 -65.3167 290° West 390 449 34,300 1,300 Climbing Moncton Center
06:03AM 45.2500 -65.4667 279° West 370 426 35,500 1,000 Climbing Moncton Center
06:04AM 45.2667 -65.6167 279° West 370 426 36,300 750 Climbing Moncton Center
06:05AM 45.2833 -65.7833 278° West 370 426 37,000 750 Climbing Moncton Center
06:06AM 45.3000 -65.9000 282° West 370 426 37,800 500 Climbing Moncton Center
06:07AM 45.3167 -66.0667 278° West 370 426 38,000 100 Climbing Moncton Center
06:08AM 45.3333 -66.2000 280° West 370 426 38,000  Level Moncton Center
06:09AM 45.3333 -66.3500 270° West 390 449 38,000  Level Moncton Center
06:10AM 45.3667 -66.5000 288° West 390 449 38,000  Level Moncton Center
06:11AM 45.3833 -66.6333 280° West 390 449 38,000  Level Moncton Center
06:12AM 45.4000 -66.8000 278° West 390 449 38,000  Level Moncton Center
06:13AM 45.4167 -66.9500 279° West 390 449 38,000  Level Moncton Center
06:14AM 45.4167 -67.1167 270° West 390 449 38,000  Level Moncton Center
06:15AM 45.4500 -67.2667 288° West 390 449 38,000  Level Moncton Center
06:16AM 45.4667 -67.4333 278° West 390 449 38,000  Level Moncton Center
06:17AM 45.4833 -67.5667 280° West 390 449 38,000  Level Moncton Center
06:18AM 45.5047 -67.6628 288° West 394 453 38,000  Level Boston Center
06:19AM 45.5211 -67.8156 279° West 394 453 38,000  Level Boston Center
06:19AM 45.5000 -67.8833 246° West 390 449 38,000  Level Moncton Center
06:20AM 45.5333 -68.0333 288° West 390 449 38,000  Level Moncton Center
06:21AM 45.5500 -68.2000 278° West 380 437 38,000  Level Moncton Center
06:22AM 45.5631 -68.2600 287° West 399 459 38,000  Level Boston Center
06:23AM 45.5769 -68.4133 277° West 394 453 38,000  Level Boston Center
06:24AM 45.5925 -68.5664 278° West 394 453 38,000  Level Boston Center
06:25AM 45.6161 -68.7161 283° West 394 453 38,000 -400 Level Boston Center
06:26AM 45.6375 -68.8633 282° West 389 448 37,200 -1,000 Descending Boston Center
06:27AM 45.6628 -69.0192 283° West 395 455 36,000 -1,300 Descending Boston Center
06:28AM 45.6861 -69.1753 282° West 401 461 34,600 -1,350 Descending Boston Center
06:29AM 45.7092 -69.3344 282° West 406 467 33,300 -1,357 Descending Boston Center
06:29AM 45.7167 -69.4000 279° West 410 472 32,700 -1,500 Descending Moncton Center
06:30AM 45.7167 -69.5833 270° West 410 472 31,200 -1,438 Descending Moncton Center
06:31AM 45.7569 -69.6531 310° West 411 473 30,400 -750 Descending Boston Center
06:32AM 45.7792 -69.8097 282° West 411 473 30,000 -200 Descending Boston Center
06:33AM 45.8017 -69.9725 281° West 411 473 30,000  Level Boston Center
06:34AM 45.8258 -70.1383 282° West 421 484 30,000 -227 Level Boston Center
06:35AM 45.8497 -70.3011 282° West 421 484 29,500 -653 Descending Boston Center
06:35AM 45.8500 -70.4000 270° West 410 472 28,900 -1,011 Descending Montreal Center
06:36AM 45.8833 -70.5667 286° West 430 495 28,000 -450 Descending Montreal Center
06:37AM 45.9000 -70.7333 278° West 420 483 28,000  Level Montreal Center
06:38AM 45.9167 -70.9000 278° West 410 472 28,000  Level Montreal Center
06:39AM 45.9000 -71.0500 261° West 400 460 28,000  Level Montreal Center
06:40AM 45.8667 -71.2167 254° West 410 472 28,000  Level Montreal Center
06:41AM 45.8667 -71.4000 270° West 400 460 28,000  Level Montreal Center
06:42AM 45.8500 -71.5333 260° West 410 472 28,000  Level Montreal Center
06:43AM 45.8500 -71.7000 270° West 410 472 28,000  Level Montreal Center
06:44AM 45.8167 -71.8833 255° West 400 460 28,000 -950 Level Montreal Center
06:45AM 45.8000 -72.0167 260° West 400 460 26,100 -2,100 Descending Montreal Center
06:46AM 45.8000 -72.1667 270° West 380 437 23,800 -2,150 Descending Montreal Center
06:47AM 45.7833 -72.3167 261° West 360 414 21,800 -2,000 Descending Montreal Center
06:48AM 45.7667 -72.4667 261° West 350 403 19,800 -2,000 Descending Montreal Center
06:49AM 45.7500 -72.5833 258° West 330 380 17,800 -1,850 Descending Montreal Center
06:50AM 45.7500 -72.7000 270° West 310 357 16,100 -1,700 Descending Montreal Center
06:51AM 45.7333 -72.8167 258° West 300 345 14,400 -1,700 Descending Montreal Center
06:52AM 45.7167 -72.9500 260° West 290 334 12,700 -1,700 Descending Montreal Center
06:53AM 45.7000 -73.0333 254° West 280 322 11,000 -1,650 Descending Montreal Center
06:54AM 45.6833 -73.1667 260° West 270 311 9,400 -1,600 Descending Montreal Center
06:55AM 45.6833 -73.2500 270° West 260 299 7,800 -1,600 Descending Montreal Center
06:56AM 45.6667 -73.3500 257° West 260 299 6,200 -1,400 Descending Montreal Center
06:57AM 45.6500 -73.4500 257° West 250 288 5,000 -1,050 Descending Montreal Center
06:58AM 45.6167 -73.5167 234° Southwest 220 253 4,100 -1,050 Descending Montreal Center
06:59AM 45.5833 -73.6000 240° Southwest 190 219 2,900 -1,050 Descending Montreal Center
07:00AM 45.5333 -73.6500 215° Southwest 180 207 2,000 -900 Descending Montreal Center
07:01AM 45.5000 -73.6667 199° South 160 184 1,100 -900 Descending Montreal Center

Login

Don't have an account? Register now (free) for customized features, flight alerts, and more!